F5SHG-3 messages


fromtotime message
F5SHG-3 F5SHG-9 05/01 13:14:31z Send another -49dBm / 6.25dB / -25Hz *av*
F5SHG-9 F5SHG-3 05/01 13:14:26z Reply ?aprssr{68
F5SHG-3 F5SHG-9 04/26 14:40:40z Send another -107dBm / 2.50dB / 1Hz *oh*
F5SHG-9 F5SHG-3 04/26 14:40:35z Reply ?aprssr{91
F5SHG-3 F5SHG-9 04/26 14:39:17z Send another -109dBm / -2.00dB / -1Hz *ye*
F5SHG-9 F5SHG-3 04/26 14:39:12z Reply ?aprssr{69
F5SHG-3 F5SHG-9 04/26 13:59:37z Send another -115dBm / -7.50dB / 7Hz *vs*
F5SHG-3 F5SHG-9 04/26 13:58:47z Send another -117dBm / -9.00dB / 16Hz *jq*
F5SHG-9 F5SHG-3 04/26 13:58:42z Reply ?aprssr{65
F5SHG-3 F5SHG-9 04/26 13:18:19z Send another -124dBm / -16.00dB / 2Hz *ok*
F5SHG-9 F5SHG-3 04/26 13:18:14z Reply ?aprssr{82
F5SHG-3 F5SHG-9 04/26 09:58:22z Send another -47dBm / 7.00dB / -13Hz *yj*
F5SHG-9 F5SHG-3 04/26 09:58:17z Reply ?aprssr{86
F5SHG-3 F5SHG-9 04/26 08:48:09z Send another -101dBm / 3.50dB / 206Hz *sa*
F5SHG-9 F5SHG-3 04/26 08:48:04z Reply ?aprssr{98
F5SHG-3 F5SHG-9 04/26 08:47:11z Send another -114dBm / -8.00dB / 37Hz *qz*
F5SHG-3 F5SHG-9 04/26 08:46:48z Send another -115dBm / -7.50dB / 42Hz *vt*
F5SHG-9 F5SHG-3 04/26 08:31:57z Reply ?aprsl{94
F5SHG-3 F5SHG-9 04/26 08:31:31z Send another F5SHG-9 F6JON-10 F1ZJA F5ZYM-10 F1ZHA F6ZAG F1ZMA-10 F6JON-8 F1ZJY F1ZMA-3 F5ZKI-10 F6JON-9 F5NVY-3 F6ZCC F6ZDH *bi*
F5SHG-9 F5SHG-3 04/26 08:26:47z Reply ?aprssr{60
F6JON-10 F5SHG-3 04/26 05:23:27z Reply Plus de radio a a seilhac pour le moment{21
F5SHG-3 F5SHG-9 04/25 20:45:29z Send another -101dBm / 3.25dB / 0Hz *no*
F5SHG-9 F5SHG-3 04/25 20:45:24z Reply ?APRSSR{40
F5SHG-3 F5SHG-9 04/25 20:44:46z Send another F1ZMA-10 F5ZMX-10 F6ZAG F1ZHA F5SHG-9 F1ZJA F6JON-10 F6JON-6 F1ZMA-3 F5ZYM-10 F4LZC-9 F1ZJY *im*
F5SHG-9 F5SHG-3 04/25 20:44:41z Reply ?APRSL{74
F5SHG-3 F5SHG-9 04/25 20:30:03z Send another F1ZMA-10 F5ZMX-10 F5ZKI-10 F6ZAG F5NVY-3 F1ZHA F5SHG-9 F1ZJA F6JON-10 F6ZCC F6JON-6 F1ZMA-3 F6ZDB F5ZYM-10 F4LZC-9 F1ZJY *wy*
F5SHG-9 F5SHG-3 04/25 20:29:58z Reply ?aprsl{42
F5SHG-3 F5SHG-9 04/25 20:27:53z Send another -120dBm / -11.50dB / -64Hz *uc*
F5SHG-9 F5SHG-3 04/25 20:27:49z Reply ?aprssr{81
F6JON-9 F5SHG-3 04/20 05:40:21z Reply Hello{44
F6JON-9 F5SHG-3 04/19 20:12:14z Reply Rentré{48
F6JON-9 F5SHG-3 04/19 20:11:07z Reply Salut{56
F1ZMA-10 F5SHG-3 04/19 15:55:29z Reply F4HOK-10 F6JON-10 F8KHC-15 F5ZYM-10 F5SHG-3 F6ZEA-10 F4LZC-9 F5ZZW-10 F5MIW-10 F4BQN-7 F4DJT-10 F1MKC-10 F5ZED-10 F5ZKI-10 F5ZMX-10 F6CQU-9
F5SHG-3 F1ZMA-10 04/19 15:55:24z Send another ?aprsl{20
F1ZMA-10 F5SHG-3 04/19 15:54:54z Reply -127dBm / -19.75dB / 1453Hz
F5SHG-3 F1ZMA-10 04/19 15:54:49z Send another ?aprssr{43
F5SHG-9 F5SHG-3 04/18 12:45:41z Reply ?aprsl{53
F5SHG-3 F5SHG-9 04/18 12:42:59z Send another -49dBm / 5.75dB / -8Hz *vu*
F5SHG-3 F5SHG-9 04/18 12:40:38z Send another F1ZJY F5ZMX-10 F1ZHA F5ZYM-10 F6JON-10 F6ZCC F5SHG-9 F6ZDB F1ZMA-3 F1ZMA-10 F5MIW-10 F6ZAG F5ZYM F1ZJA *jc*
F6JON-9 F5SHG-3 04/17 11:17:59z Reply A pluche{73
F6JON-9 F5SHG-3 04/17 11:11:14z Reply Soleil ça brille bien{53
F6JON-9 F5SHG-3 04/17 11:10:10z Reply Et bonne am{11
F6JON-9 F5SHG-3 04/17 11:06:35z Reply Bon café{39
F6JON-9 F5SHG-3 04/17 06:22:56z Reply Ok{74
F5SHG-3 F6JON-9 04/17 06:21:42z Send another Bon je coupe le Lora et je vois ce que je peux faire vous restez un peu ?{23
F6JON-9 F5SHG-3 04/17 06:20:51z Reply Dommage{64
F5SHG-3 F6JON-9 04/17 06:19:37z Send another Si mais là tout de suite un peu plus tard{40
F5SHG-3 F6JON-9 04/17 06:18:29z Send another Bon je passe qrt, je ferai un essai sur le RLF tout à l'heure{46
F6JON-9 F5SHG-3 04/17 06:18:00z Reply Pas de radio ? Rlf avec hdn{83
F6JON-9 F5SHG-3 04/17 06:15:56z Reply Oui{88
F5SHG-3 F6JON-9 04/17 06:14:30z Send another Oui là c'est pas mal en respectant l'échange un coup toi un coup moi nickel{27
F6JON-9 F5SHG-3 04/17 06:13:59z Reply La c nickel{31
F5SHG-3 F6JON-9 04/17 06:12:48z Send another Avec le tracker contre le toit en bluetooth c'est le bazar car de la maison je n'arrive pas à me connecter comme il faut{56
F6JON-9 F5SHG-3 04/17 06:12:02z Reply Tout a fait{49
F5SHG-3 F6JON-9 04/17 06:10:05z Send another Et comme on disait hier : un tracker trop proche de l'iGate n'est pas signe de performance{95
F6JON-9 F5SHG-3 04/17 06:09:52z Reply Et oui{98
F5SHG-3 F6JON-9 04/17 06:08:20z Send another Hi ! Oui mais j'attaque directement sur l'iGate{48
F6JON-9 F5SHG-3 04/17 06:07:16z Reply Purée la ça marche{85
F5SHG-3 F6JON-9 04/17 06:06:35z Send another Le problème c'est que le tracker est très proche du ciel de toit donc pour le bluetooth pas top en extérieur{59
F6JON-9 F5SHG-3 04/17 06:05:59z Reply Ça doit pas être du simple au double{60
F5SHG-3 F6JON-9 04/17 06:05:11z Send another Oui mais je me demande si ça marche mieux faut voir dans le temps{57
F6JON-9 F5SHG-3 04/17 06:04:47z Reply Ah bon ?{87
F5SHG-3 F6JON-9 04/17 06:03:36z Send another Bon j'ai monté une petite antenne plus performant dans la voiture{12
F6JON-9 F5SHG-3 04/17 06:03:18z Reply Hihihihi{94
F5SHG-3 F6JON-9 04/17 06:02:25z Send another Il te faut descendre la cafetière à la station{91
F6JON-9 F5SHG-3 04/17 06:01:54z Reply Il est avec moi{52
F5SHG-3 F6JON-9 04/17 06:00:43z Send another Impeccable bon tu as bu le café ?{31
F6JON-9 F5SHG-3 04/17 05:59:45z Reply Ok revenu{62
F5SHG-3 F6JON-9 04/17 05:58:13z Send another Ok. Attention en alternat une trame toi une trame moi sinon ça peche. Je reste en RX{20
F5SHG-3 F6JON-9 04/17 05:57:00z Send another Bon ça fonctionne ??{72
F5SHG-3 F6JON-9 04/17 05:56:47z Send another Oui mais le tracteur est mal placé je reçois ricrac{72
F6JON-9 F5SHG-3 04/17 05:54:44z Reply 5 min je re . Qrx{97
F6JON-9 F5SHG-3 04/17 05:54:04z Reply Il doit être la le souci{98
F6JON-9 F5SHG-3 04/17 05:53:00z Reply Ça marche mieux que via ton tracker{48
F5SHG-3 F6JON-9 04/17 05:52:41z Send another Parfait : tu dois être super contente ce matin alors hi !{55
F6JON-9 F5SHG-3 04/17 05:52:11z Reply J'ai tous les ack{26
F5SHG-3 F6JON-9 04/17 05:52:10z Send another Je surveille en même temps{71
F6JON-9 F5SHG-3 04/17 05:51:06z Reply Ok{67
F5SHG-3 F6JON-9 04/17 05:50:56z Send another Si toutes nos trames passent sur Internet{23
F6JON-9 F5SHG-3 04/17 05:49:35z Reply Pas sûr que quand direct on le voit sur internet{74
F5SHG-3 F6JON-9 04/17 05:48:42z Send another Celle où tu me demandes où je suis et oui peut-être du direct{60
F6JON-9 F5SHG-3 04/17 05:47:49z Reply Doit y avoir du direct{73
F5SHG-3 F6JON-9 04/17 05:47:31z Send another Il me manque une trame que je n'ai pas reçue{21
F6JON-9 F5SHG-3 04/17 05:46:43z Reply Ça marche mieux via le -3{30
F5SHG-3 F6JON-9 04/17 05:45:48z Send another La oui{39
F6JON-9 F5SHG-3 04/17 05:45:15z Reply Ok tu es a chamboulive ?{54
F5SHG-3 F6JON-9 04/17 05:44:41z Send another Oui{87
F6JON-9 F5SHG-3 04/17 05:43:43z Reply Tu me reçois ?{70
F5SHG-3 F6JON-9 04/17 05:43:25z Send another Voila{56
F6JON-6 F5SHG-3 04/16 16:51:51z Reply Bon le relais ne sort que a peine 4 watts{37
F6JON-6 F5SHG-3 04/16 16:50:54z Reply Donc pb{46
F6JON-9 F5SHG-3 04/16 14:33:19z Reply Essai de seilhac{26
F6JON-9 F5SHG-3 04/16 14:20:49z Reply Re{21
F5SHG-3 F6JON-9 04/16 07:01:35z Send another CA2RXU_LoRa_iGate v3.1.6.2 2025-12-22 *gr*
F5SHG-3 F6JON-8 04/16 05:26:28z Send another Je vais passer par le tracker bouge pas{82
F5SHG-3 F6JON-8 04/16 05:26:02z Send another Bon tu as déjeuné hi !{63
F6JON-8 F5SHG-3 04/16 05:25:40z Reply On doit être en direct{90
F5SHG-3 F6JON-8 04/16 05:24:23z Send another Petite brume ce matin et : Température 8.9°C Humidité 66% Pression 1024.2 mbar{60
F6JON-8 F5SHG-3 04/16 05:24:04z Reply Ça roule nickel{15
F6JON-8 F5SHG-3 04/16 05:23:45z Reply Bueno ça{29